This is the latest recevied weather packets stored in our database for station/object IT9DBI-3. If no packets are shown the sender has not sent any weather packets the latest 10 day(s).
| Time | Temp. | Humidity | Pressure | Rain* | Wind** | Luminosity | Snow |
|---|---|---|---|---|---|---|---|
| 1777363480 | 18.33° C | 86% | 1015.8 hPa | - | - | - | - |
| 1777362278 | 18.33° C | 87% | 1015.9 hPa | - | - | - | - |
| 1777361077 | 17.78° C | 84% | 1015.9 hPa | - | - | - | - |
| 1777359875 | 17.22° C | 91% | 1016 hPa | - | - | - | - |
| 1777358674 | 16.11° C | 98% | 1016 hPa | - | - | - | - |
| 1777357473 | 15.56° C | 100% | 1016.2 hPa | - | - | - | - |
| 1777356269 | 15° C | 100% | 1016.2 hPa | - | - | - | - |
| 1777355067 | 14.44° C | 100% | 1016.2 hPa | - | - | - | - |
| 1777353866 | 13.89° C | 100% | 1016.2 hPa | - | - | - | - |
| 1777352665 | 13.33° C | 100% | 1016.2 hPa | - | - | - | - |
| 1777351464 | 12.78° C | 100% | 1016 hPa | - | - | - | - |
| 1777350262 | 12.78° C | 100% | 1016.3 hPa | - | - | - | - |
| 1777349059 | 12.78° C | 100% | 1016.2 hPa | - | - | - | - |
| 1777346628 | 12.78° C | 100% | 1016.3 hPa | - | - | - | - |
| 1777345426 | 12.78° C | 100% | 1016.5 hPa | - | - | - | - |
| 1777344225 | 13.33° C | 100% | 1016.5 hPa | - | - | - | - |
| 1777343023 | 13.33° C | 100% | 1016.6 hPa | - | - | - | - |
| 1777341822 | 13.33° C | 100% | 1016.7 hPa | - | - | - | - |
| 1777340620 | 12.78° C | 100% | 1016.7 hPa | - | - | - | - |
| 1777339419 | 13.33° C | 100% | 1016.7 hPa | - | - | - | - |
| 1777338218 | 12.78° C | 100% | 1016.8 hPa | - | - | - | - |
| 1777337017 | 13.33° C | 100% | 1016.7 hPa | - | - | - | - |
| 1777335815 | 13.89° C | 100% | 1016.8 hPa | - | - | - | - |
| 1777334614 | 13.33° C | 100% | 1016.9 hPa | - | - | - | - |
| 1777333413 | 13.33° C | 100% | 1017 hPa | - | - | - | - |
* Rain since midnight (hover to see other rain measurements)
** Current wind speed in m/s (hover to see current wind gust speed)